Find Microscope

NORAD ID: 41457 Int'l Des: 2016-025 Owner: CNES Country: F operational
LEOCIRCULARRETROGRADESSO

实时位置

正在加载3D地球...

关于 Microscope

正在加载描述...

即将过境

Passes for default location (London). Set your location on the main map for personalized predictions.

高度历史

Loading altitude history...

两行轨道根数

1 41457U 16025B 26106.27376993 .00000510 00000-0 11738-3 0 9995
2 41457 98.2476 119.3089 0001680 79.0203 281.1186 14.59486235529691
Epoch: Apr 16, 2026 • Age: 10 hours

当前状态

高度 699.5 km
速度 7.51 km/s
星下点 39.42°N, 18.72°E
发射日期 Apr 25, 2016
运行时间 9.9 years
类型 other

技术详情

分类 Payload
质量 303.00 kg
干质量 303.00 kg
总质量 303.00 kg
长度 1.30 m
直径 0.90 m
跨度 6.00 m
形状 Box + 2 panels+ 2 booms
制造商 ONERA/CNES
平台类型 Myriade
阶段状态 In Orbit
所有者/国家 CNES/F

Most Searched